owner,sensor,date,latitude,longitude,sea_surface_height_above_sea_level,qcFlag 
TCOON,ioos:station:TCOON:068:1,2016-12-01T00:18:00Z,27.2970,-97.4049,4.317,1111122 
TCOON,ioos:station:TCOON:068:1,2016-12-01T01:18:00Z,27.2970,-97.4049,4.32,1111122 
TCOON,ioos:station:TCOON:068:1,2016-12-01T02:18:00Z,27.2970,-97.4049,4.322,1111122 
TCOON,ioos:station:TCOON:068:1,2016-12-01T03:18:00Z,27.2970,-97.4049,4.328,1111122 
TCOON,ioos:station:TCOON:068:1,2016-12-01T04:18:00Z,27.2970,-97.4049,4.332,1111122 
TCOON,ioos:station:TCOON:068:1,2016-12-01T05:18:00Z,27.2970,-97.4049,4.333,1111122 
TCOON,ioos:station:TCOON:068:1,2016-12-01T06:18:00Z,27.2970,-97.4049,4.336,1111122 
TCOON,ioos:station:TCOON:068:1,2016-12-01T07:18:00Z,27.2970,-97.4049,4.333,1111122 
TCOON,ioos:station:TCOON:068:1,2016-12-01T08:18:00Z,27.2970,-97.4049,4.335,1111122 
TCOON,ioos:station:TCOON:068:1,2016-12-01T09:18:00Z,27.2970,-97.4049,4.332,1111122 
TCOON,ioos:station:TCOON:068:1,2016-12-01T10:18:00Z,27.2970,-97.4049,4.332,1111122 
TCOON,ioos:station:TCOON:068:1,2016-12-01T11:18:00Z,27.2970,-97.4049,4.328,1111122 
TCOON,ioos:station:TCOON:068:1,2016-12-01T12:18:00Z,27.2970,-97.4049,4.329,1111122 
TCOON,ioos:station:TCOON:068:1,2016-12-01T13:18:00Z,27.2970,-97.4049,4.333,1111122 
TCOON,ioos:station:TCOON:068:1,2016-12-01T14:18:00Z,27.2970,-97.4049,4.345,1111122 
TCOON,ioos:station:TCOON:068:1,2016-12-01T15:18:00Z,27.2970,-97.4049,4.349,1111122 
TCOON,ioos:station:TCOON:068:1,2016-12-01T16:18:00Z,27.2970,-97.4049,4.342,1111122 
TCOON,ioos:station:TCOON:068:1,2016-12-01T17:30:00Z,27.2970,-97.4049,4.347,1111122 
TCOON,ioos:station:TCOON:068:1,2016-12-01T18:18:00Z,27.2970,-97.4049,4.347,1111122 
TCOON,ioos:station:TCOON:068:1,2016-12-01T19:18:00Z,27.2970,-97.4049,4.343,1111122 
TCOON,ioos:station:TCOON:068:1,2016-12-01T20:18:00Z,27.2970,-97.4049,4.345,1111122 
TCOON,ioos:station:TCOON:068:1,2016-12-01T21:18:00Z,27.2970,-97.4049,4.344,1111122 
TCOON,ioos:station:TCOON:068:1,2016-12-01T22:18:00Z,27.2970,-97.4049,4.346,1111122 
TCOON,ioos:station:TCOON:068:1,2016-12-01T23:18:00Z,27.2970,-97.4049,4.348,1111122 
TCOON,ioos:station:TCOON:068:1,2016-12-02T00:18:00Z,27.2970,-97.4049,4.349,1111122 
TCOON,ioos:station:TCOON:068:1,2016-12-02T01:18:00Z,27.2970,-97.4049,4.349,1111122 
TCOON,ioos:station:TCOON:068:1,2016-12-02T02:18:00Z,27.2970,-97.4049,4.345,1111122 
TCOON,ioos:station:TCOON:068:1,2016-12-02T03:18:00Z,27.2970,-97.4049,4.344,1111122 
TCOON,ioos:station:TCOON:068:1,2016-12-02T04:18:00Z,27.2970,-97.4049,4.347,1111122 
TCOON,ioos:station:TCOON:068:1,2016-12-02T05:18:00Z,27.2970,-97.4049,4.345,1111122 
TCOON,ioos:station:TCOON:068:1,2016-12-02T06:18:00Z,27.2970,-97.4049,4.346,1111122 
TCOON,ioos:station:TCOON:068:1,2016-12-02T07:18:00Z,27.2970,-97.4049,4.345,1111122 
TCOON,ioos:station:TCOON:068:1,2016-12-02T08:18:00Z,27.2970,-97.4049,4.356,1111122 
TCOON,ioos:station:TCOON:068:1,2016-12-02T09:18:00Z,27.2970,-97.4049,4.361,1111122 
TCOON,ioos:station:TCOON:068:1,2016-12-02T10:18:00Z,27.2970,-97.4049,4.369,1111122 
TCOON,ioos:station:TCOON:068:1,2016-12-02T11:18:00Z,27.2970,-97.4049,4.368,1111122 
TCOON,ioos:station:TCOON:068:1,2016-12-02T12:18:00Z,27.2970,-97.4049,4.369,1111122 
TCOON,ioos:station:TCOON:068:1,2016-12-02T13:18:00Z,27.2970,-97.4049,4.364,1111122 
TCOON,ioos:station:TCOON:068:1,2016-12-02T14:18:00Z,27.2970,-97.4049,4.366,1111122 
TCOON,ioos:station:TCOON:068:1,2016-12-02T15:18:00Z,27.2970,-97.4049,4.361,1111122 
TCOON,ioos:station:TCOON:068:1,2016-12-02T16:18:00Z,27.2970,-97.4049,4.36,1111122 
TCOON,ioos:station:TCOON:068:1,2016-12-02T17:18:00Z,27.2970,-97.4049,4.354,1111122 
TCOON,ioos:station:TCOON:068:1,2016-12-02T18:18:00Z,27.2970,-97.4049,4.355,1111122 
TCOON,ioos:station:TCOON:068:1,2016-12-02T19:18:00Z,27.2970,-97.4049,4.356,1111122 
TCOON,ioos:station:TCOON:068:1,2016-12-02T20:18:00Z,27.2970,-97.4049,4.366,1111122 
TCOON,ioos:station:TCOON:068:1,2016-12-02T21:18:00Z,27.2970,-97.4049,4.364,1111122 
TCOON,ioos:station:TCOON:068:1,2016-12-02T22:18:00Z,27.2970,-97.4049,4.357,1111122 
TCOON,ioos:station:TCOON:068:1,2016-12-02T23:18:00Z,27.2970,-97.4049,4.355,1111122 
TCOON,ioos:station:TCOON:068:1,2016-12-03T00:18:00Z,27.2970,-97.4049,4.363,1111122 
TCOON,ioos:station:TCOON:068:1,2016-12-03T01:18:00Z,27.2970,-97.4049,4.377,1111122 
TCOON,ioos:station:TCOON:068:1,2016-12-03T02:18:00Z,27.2970,-97.4049,4.396,1111122 
TCOON,ioos:station:TCOON:068:1,2016-12-03T03:18:00Z,27.2970,-97.4049,4.412,1111122 
TCOON,ioos:station:TCOON:068:1,2016-12-03T04:18:00Z,27.2970,-97.4049,4.421,1111122 
TCOON,ioos:station:TCOON:068:1,2016-12-03T05:18:00Z,27.2970,-97.4049,4.42,1111122 
TCOON,ioos:station:TCOON:068:1,2016-12-03T06:18:00Z,27.2970,-97.4049,4.418,1111122 
TCOON,ioos:station:TCOON:068:1,2016-12-03T07:18:00Z,27.2970,-97.4049,4.422,1111122 
TCOON,ioos:station:TCOON:068:1,2016-12-03T08:18:00Z,27.2970,-97.4049,4.424,1111122 
TCOON,ioos:station:TCOON:068:1,2016-12-03T09:18:00Z,27.2970,-97.4049,4.425,1111122 
TCOON,ioos:station:TCOON:068:1,2016-12-03T10:18:00Z,27.2970,-97.4049,4.427,1111122 
TCOON,ioos:station:TCOON:068:1,2016-12-03T11:18:00Z,27.2970,-97.4049,4.43,1111122 
TCOON,ioos:station:TCOON:068:1,2016-12-03T12:18:00Z,27.2970,-97.4049,4.436,1111122 
TCOON,ioos:station:TCOON:068:1,2016-12-03T13:18:00Z,27.2970,-97.4049,4.444,1111122 
TCOON,ioos:station:TCOON:068:1,2016-12-03T14:18:00Z,27.2970,-97.4049,4.449,1111122 
TCOON,ioos:station:TCOON:068:1,2016-12-03T15:18:00Z,27.2970,-97.4049,4.447,1111122 
TCOON,ioos:station:TCOON:068:1,2016-12-03T16:18:00Z,27.2970,-97.4049,4.455,1111122 
TCOON,ioos:station:TCOON:068:1,2016-12-03T17:18:00Z,27.2970,-97.4049,4.46,1111122 
TCOON,ioos:station:TCOON:068:1,2016-12-03T18:18:00Z,27.2970,-97.4049,4.453,1111122 
TCOON,ioos:station:TCOON:068:1,2016-12-03T19:18:00Z,27.2970,-97.4049,4.457,1111122 
TCOON,ioos:station:TCOON:068:1,2016-12-03T20:18:00Z,27.2970,-97.4049,4.447,1111122 
TCOON,ioos:station:TCOON:068:1,2016-12-03T21:18:00Z,27.2970,-97.4049,4.445,1111122 
TCOON,ioos:station:TCOON:068:1,2016-12-03T22:18:00Z,27.2970,-97.4049,4.456,1111122 
TCOON,ioos:station:TCOON:068:1,2016-12-03T23:18:00Z,27.2970,-97.4049,4.466,1111122 
TCOON,ioos:station:TCOON:068:1,2016-12-04T00:18:00Z,27.2970,-97.4049,4.488,1111122 
TCOON,ioos:station:TCOON:068:1,2016-12-04T01:18:00Z,27.2970,-97.4049,4.488,1111122 
TCOON,ioos:station:TCOON:068:1,2016-12-04T02:18:00Z,27.2970,-97.4049,4.49,1111122 
TCOON,ioos:station:TCOON:068:1,2016-12-04T03:18:00Z,27.2970,-97.4049,4.482,1111122 
TCOON,ioos:station:TCOON:068:1,2016-12-04T04:18:00Z,27.2970,-97.4049,4.46,1111122 
TCOON,ioos:station:TCOON:068:1,2016-12-04T05:18:00Z,27.2970,-97.4049,4.456,1111122 
TCOON,ioos:station:TCOON:068:1,2016-12-04T06:18:00Z,27.2970,-97.4049,4.464,1111122 
TCOON,ioos:station:TCOON:068:1,2016-12-04T07:18:00Z,27.2970,-97.4049,4.431,1111122 
TCOON,ioos:station:TCOON:068:1,2016-12-04T08:18:00Z,27.2970,-97.4049,4.485,1111122 
TCOON,ioos:station:TCOON:068:1,2016-12-04T09:18:00Z,27.2970,-97.4049,4.521,1111122 
TCOON,ioos:station:TCOON:068:1,2016-12-04T10:18:00Z,27.2970,-97.4049,4.529,1111122 
TCOON,ioos:station:TCOON:068:1,2016-12-04T11:18:00Z,27.2970,-97.4049,4.527,1111122 
TCOON,ioos:station:TCOON:068:1,2016-12-04T12:18:00Z,27.2970,-97.4049,4.5,1111122 
TCOON,ioos:station:TCOON:068:1,2016-12-04T13:18:00Z,27.2970,-97.4049,4.472,1111122 
TCOON,ioos:station:TCOON:068:1,2016-12-04T14:18:00Z,27.2970,-97.4049,4.498,1111122 
TCOON,ioos:station:TCOON:068:1,2016-12-04T15:18:00Z,27.2970,-97.4049,4.516,1111122 
TCOON,ioos:station:TCOON:068:1,2016-12-04T16:18:00Z,27.2970,-97.4049,4.524,1111122 
TCOON,ioos:station:TCOON:068:1,2016-12-04T17:18:00Z,27.2970,-97.4049,4.519,1111122 
TCOON,ioos:station:TCOON:068:1,2016-12-04T18:18:00Z,27.2970,-97.4049,4.517,1111122 
TCOON,ioos:station:TCOON:068:1,2016-12-04T19:18:00Z,27.2970,-97.4049,4.526,1111122 
TCOON,ioos:station:TCOON:068:1,2016-12-04T20:18:00Z,27.2970,-97.4049,4.526,1111122 
TCOON,ioos:station:TCOON:068:1,2016-12-04T21:18:00Z,27.2970,-97.4049,4.521,1111122 
TCOON,ioos:station:TCOON:068:1,2016-12-04T22:18:00Z,27.2970,-97.4049,4.502,1111122 
TCOON,ioos:station:TCOON:068:1,2016-12-04T23:18:00Z,27.2970,-97.4049,4.517,1111122 
TCOON,ioos:station:TCOON:068:1,2016-12-05T00:18:00Z,27.2970,-97.4049,4.524,1111122 
TCOON,ioos:station:TCOON:068:1,2016-12-05T01:18:00Z,27.2970,-97.4049,4.527,1111122 
TCOON,ioos:station:TCOON:068:1,2016-12-05T02:18:00Z,27.2970,-97.4049,4.532,1111122 
TCOON,ioos:station:TCOON:068:1,2016-12-05T03:18:00Z,27.2970,-97.4049,4.538,1111122 
TCOON,ioos:station:TCOON:068:1,2016-12-05T04:18:00Z,27.2970,-97.4049,4.549,1111122 
TCOON,ioos:station:TCOON:068:1,2016-12-05T05:18:00Z,27.2970,-97.4049,4.549,1111122 
TCOON,ioos:station:TCOON:068:1,2016-12-05T06:18:00Z,27.2970,-97.4049,4.557,1111122 
TCOON,ioos:station:TCOON:068:1,2016-12-05T07:18:00Z,27.2970,-97.4049,4.568,1111122 
TCOON,ioos:station:TCOON:068:1,2016-12-05T08:18:00Z,27.2970,-97.4049,4.572,1111122 
TCOON,ioos:station:TCOON:068:1,2016-12-05T09:18:00Z,27.2970,-97.4049,4.567,1111122 
TCOON,ioos:station:TCOON:068:1,2016-12-05T10:18:00Z,27.2970,-97.4049,4.561,1111122 
TCOON,ioos:station:TCOON:068:1,2016-12-05T11:18:00Z,27.2970,-97.4049,4.568,1111122 
TCOON,ioos:station:TCOON:068:1,2016-12-05T12:18:00Z,27.2970,-97.4049,4.569,1111122 
TCOON,ioos:station:TCOON:068:1,2016-12-05T13:18:00Z,27.2970,-97.4049,4.572,1111122 
TCOON,ioos:station:TCOON:068:1,2016-12-05T14:18:00Z,27.2970,-97.4049,4.576,1111122 
TCOON,ioos:station:TCOON:068:1,2016-12-05T15:18:00Z,27.2970,-97.4049,4.572,1111122 
TCOON,ioos:station:TCOON:068:1,2016-12-05T21:36:00Z,27.2970,-97.4049,4.582,1111122 
TCOON,ioos:station:TCOON:068:1,2016-12-05T22:18:00Z,27.2970,-97.4049,4.561,1111122 
TCOON,ioos:station:TCOON:068:1,2016-12-05T23:18:00Z,27.2970,-97.4049,4.553,1111122 
TCOON,ioos:station:TCOON:068:1,2016-12-06T00:18:00Z,27.2970,-97.4049,4.543,1111122 
TCOON,ioos:station:TCOON:068:1,2016-12-06T01:18:00Z,27.2970,-97.4049,4.539,1111122 
TCOON,ioos:station:TCOON:068:1,2016-12-06T02:18:00Z,27.2970,-97.4049,4.533,1111122 
TCOON,ioos:station:TCOON:068:1,2016-12-06T03:18:00Z,27.2970,-97.4049,4.534,1111122 
TCOON,ioos:station:TCOON:068:1,2016-12-06T04:18:00Z,27.2970,-97.4049,4.541,1111122 
TCOON,ioos:station:TCOON:068:1,2016-12-06T05:18:00Z,27.2970,-97.4049,4.55,1111122 
TCOON,ioos:station:TCOON:068:1,2016-12-06T06:18:00Z,27.2970,-97.4049,4.548,1111122 
TCOON,ioos:station:TCOON:068:1,2016-12-06T07:18:00Z,27.2970,-97.4049,4.544,1111122 
TCOON,ioos:station:TCOON:068:1,2016-12-06T08:18:00Z,27.2970,-97.4049,4.545,1111122 
TCOON,ioos:station:TCOON:068:1,2016-12-06T09:18:00Z,27.2970,-97.4049,4.537,1111122 
TCOON,ioos:station:TCOON:068:1,2016-12-06T10:18:00Z,27.2970,-97.4049,4.532,1111122 
TCOON,ioos:station:TCOON:068:1,2016-12-06T11:18:00Z,27.2970,-97.4049,4.525,1111122 
TCOON,ioos:station:TCOON:068:1,2016-12-06T12:18:00Z,27.2970,-97.4049,4.523,1111122 
TCOON,ioos:station:TCOON:068:1,2016-12-06T13:18:00Z,27.2970,-97.4049,4.525,1111122 
TCOON,ioos:station:TCOON:068:1,2016-12-06T14:18:00Z,27.2970,-97.4049,4.526,1111122 
TCOON,ioos:station:TCOON:068:1,2016-12-06T15:18:00Z,27.2970,-97.4049,4.524,1111122 
TCOON,ioos:station:TCOON:068:1,2016-12-06T16:18:00Z,27.2970,-97.4049,4.524,1111122 
TCOON,ioos:station:TCOON:068:1,2016-12-06T17:18:00Z,27.2970,-97.4049,4.516,1111122 
TCOON,ioos:station:TCOON:068:1,2016-12-06T18:18:00Z,27.2970,-97.4049,4.519,1111122 
TCOON,ioos:station:TCOON:068:1,2016-12-06T19:18:00Z,27.2970,-97.4049,4.518,1111122 
TCOON,ioos:station:TCOON:068:1,2016-12-06T20:18:00Z,27.2970,-97.4049,4.508,1111122 
TCOON,ioos:station:TCOON:068:1,2016-12-06T21:18:00Z,27.2970,-97.4049,4.503,1111122 
TCOON,ioos:station:TCOON:068:1,2016-12-06T22:18:00Z,27.2970,-97.4049,4.5,1111122 
TCOON,ioos:station:TCOON:068:1,2016-12-06T23:18:00Z,27.2970,-97.4049,4.501,1111122 
TCOON,ioos:station:TCOON:068:1,2016-12-07T00:18:00Z,27.2970,-97.4049,4.497,1111122 
TCOON,ioos:station:TCOON:068:1,2016-12-07T01:18:00Z,27.2970,-97.4049,4.495,1111122 
TCOON,ioos:station:TCOON:068:1,2016-12-07T02:18:00Z,27.2970,-97.4049,4.495,1111122 
TCOON,ioos:station:TCOON:068:1,2016-12-07T03:18:00Z,27.2970,-97.4049,4.478,1111122 
TCOON,ioos:station:TCOON:068:1,2016-12-07T04:18:00Z,27.2970,-97.4049,4.475,1111122 
TCOON,ioos:station:TCOON:068:1,2016-12-07T05:18:00Z,27.2970,-97.4049,4.469,1111122 
TCOON,ioos:station:TCOON:068:1,2016-12-07T06:18:00Z,27.2970,-97.4049,4.477,1111122 
TCOON,ioos:station:TCOON:068:1,2016-12-07T07:18:00Z,27.2970,-97.4049,4.484,1111122 
TCOON,ioos:station:TCOON:068:1,2016-12-07T08:18:00Z,27.2970,-97.4049,4.488,1111122 
TCOON,ioos:station:TCOON:068:1,2016-12-07T09:18:00Z,27.2970,-97.4049,4.483,1111122 
TCOON,ioos:station:TCOON:068:1,2016-12-07T10:18:00Z,27.2970,-97.4049,4.481,1111122 
TCOON,ioos:station:TCOON:068:1,2016-12-07T11:18:00Z,27.2970,-97.4049,4.472,1111122 
TCOON,ioos:station:TCOON:068:1,2016-12-07T12:18:00Z,27.2970,-97.4049,4.468,1111122 
TCOON,ioos:station:TCOON:068:1,2016-12-07T13:18:00Z,27.2970,-97.4049,4.473,1111122 
TCOON,ioos:station:TCOON:068:1,2016-12-07T14:18:00Z,27.2970,-97.4049,4.477,1111122 
TCOON,ioos:station:TCOON:068:1,2016-12-07T15:18:00Z,27.2970,-97.4049,4.486,1111122 
TCOON,ioos:station:TCOON:068:1,2016-12-07T16:18:00Z,27.2970,-97.4049,4.482,1111122 
TCOON,ioos:station:TCOON:068:1,2016-12-07T17:18:00Z,27.2970,-97.4049,4.476,1111122 
TCOON,ioos:station:TCOON:068:1,2016-12-07T18:18:00Z,27.2970,-97.4049,4.474,1111122 
TCOON,ioos:station:TCOON:068:1,2016-12-07T19:18:00Z,27.2970,-97.4049,4.468,1111122 
TCOON,ioos:station:TCOON:068:1,2016-12-07T20:18:00Z,27.2970,-97.4049,4.464,1111122 
TCOON,ioos:station:TCOON:068:1,2016-12-07T21:18:00Z,27.2970,-97.4049,4.464,1111122 
TCOON,ioos:station:TCOON:068:1,2016-12-07T22:18:00Z,27.2970,-97.4049,4.46,1111122 
TCOON,ioos:station:TCOON:068:1,2016-12-07T23:18:00Z,27.2970,-97.4049,4.458,1111122 
TCOON,ioos:station:TCOON:068:1,2016-12-08T00:18:00Z,27.2970,-97.4049,4.462,1111122 
TCOON,ioos:station:TCOON:068:1,2016-12-08T01:18:00Z,27.2970,-97.4049,4.465,1111122 
TCOON,ioos:station:TCOON:068:1,2016-12-08T02:18:00Z,27.2970,-97.4049,4.462,1111122 
TCOON,ioos:station:TCOON:068:1,2016-12-08T03:54:00Z,27.2970,-97.4049,4.465,1111122 
TCOON,ioos:station:TCOON:068:1,2016-12-08T04:30:00Z,27.2970,-97.4049,4.461,1111122 
TCOON,ioos:station:TCOON:068:1,2016-12-08T05:18:00Z,27.2970,-97.4049,4.461,1111122 
TCOON,ioos:station:TCOON:068:1,2016-12-08T06:24:00Z,27.2970,-97.4049,4.461,1111122 
TCOON,ioos:station:TCOON:068:1,2016-12-08T07:18:00Z,27.2970,-97.4049,4.466,1111122 
TCOON,ioos:station:TCOON:068:1,2016-12-08T08:18:00Z,27.2970,-97.4049,4.469,1111122 
TCOON,ioos:station:TCOON:068:1,2016-12-08T09:18:00Z,27.2970,-97.4049,4.458,1111122 
TCOON,ioos:station:TCOON:068:1,2016-12-08T10:18:00Z,27.2970,-97.4049,4.452,1111122 
TCOON,ioos:station:TCOON:068:1,2016-12-08T11:18:00Z,27.2970,-97.4049,4.421,1111122 
TCOON,ioos:station:TCOON:068:1,2016-12-08T12:18:00Z,27.2970,-97.4049,4.41,1111122 
TCOON,ioos:station:TCOON:068:1,2016-12-08T13:18:00Z,27.2970,-97.4049,4.422,1111122 
TCOON,ioos:station:TCOON:068:1,2016-12-08T14:18:00Z,27.2970,-97.4049,4.412,1111122 
TCOON,ioos:station:TCOON:068:1,2016-12-08T15:18:00Z,27.2970,-97.4049,4.424,1111122 
TCOON,ioos:station:TCOON:068:1,2016-12-08T16:18:00Z,27.2970,-97.4049,4.454,1111122 
TCOON,ioos:station:TCOON:068:1,2016-12-08T17:18:00Z,27.2970,-97.4049,4.443,1111122 
TCOON,ioos:station:TCOON:068:1,2016-12-08T18:18:00Z,27.2970,-97.4049,4.473,1111122 
TCOON,ioos:station:TCOON:068:1,2016-12-08T19:18:00Z,27.2970,-97.4049,4.488,1111122 
TCOON,ioos:station:TCOON:068:1,2016-12-08T20:18:00Z,27.2970,-97.4049,4.519,1111122 
TCOON,ioos:station:TCOON:068:1,2016-12-08T21:18:00Z,27.2970,-97.4049,4.531,1111122 
TCOON,ioos:station:TCOON:068:1,2016-12-08T22:18:00Z,27.2970,-97.4049,4.505,1111122 
TCOON,ioos:station:TCOON:068:1,2016-12-08T23:18:00Z,27.2970,-97.4049,4.486,1111122 
TCOON,ioos:station:TCOON:068:1,2016-12-09T00:18:00Z,27.2970,-97.4049,4.49,1111122 
TCOON,ioos:station:TCOON:068:1,2016-12-09T01:18:00Z,27.2970,-97.4049,4.507,1111122 
TCOON,ioos:station:TCOON:068:1,2016-12-09T02:18:00Z,27.2970,-97.4049,4.491,1111122 
TCOON,ioos:station:TCOON:068:1,2016-12-09T03:18:00Z,27.2970,-97.4049,4.482,1111122 
TCOON,ioos:station:TCOON:068:1,2016-12-09T04:24:00Z,27.2970,-97.4049,4.477,1111122 
TCOON,ioos:station:TCOON:068:1,2016-12-09T05:18:00Z,27.2970,-97.4049,4.482,1111122 
TCOON,ioos:station:TCOON:068:1,2016-12-09T06:18:00Z,27.2970,-97.4049,4.479,1111122 
TCOON,ioos:station:TCOON:068:1,2016-12-09T07:18:00Z,27.2970,-97.4049,4.473,1111122 
TCOON,ioos:station:TCOON:068:1,2016-12-09T09:18:00Z,27.2970,-97.4049,4.479,1111122 
TCOON,ioos:station:TCOON:068:1,2016-12-09T10:18:00Z,27.2970,-97.4049,4.482,1111122 
TCOON,ioos:station:TCOON:068:1,2016-12-09T11:18:00Z,27.2970,-97.4049,4.483,1111122 
TCOON,ioos:station:TCOON:068:1,2016-12-09T12:18:00Z,27.2970,-97.4049,4.486,1111122 
TCOON,ioos:station:TCOON:068:1,2016-12-09T13:18:00Z,27.2970,-97.4049,4.483,1111122 
TCOON,ioos:station:TCOON:068:1,2016-12-09T14:18:00Z,27.2970,-97.4049,4.49,1111122 
TCOON,ioos:station:TCOON:068:1,2016-12-09T15:18:00Z,27.2970,-97.4049,4.492,1111122 
TCOON,ioos:station:TCOON:068:1,2016-12-09T16:24:00Z,27.2970,-97.4049,4.487,1111122 
TCOON,ioos:station:TCOON:068:1,2016-12-09T17:18:00Z,27.2970,-97.4049,4.492,1111122 
TCOON,ioos:station:TCOON:068:1,2016-12-09T18:18:00Z,27.2970,-97.4049,4.489,1111122 
TCOON,ioos:station:TCOON:068:1,2016-12-09T19:18:00Z,27.2970,-97.4049,4.485,1111122 
TCOON,ioos:station:TCOON:068:1,2016-12-09T20:18:00Z,27.2970,-97.4049,4.491,1111122 
TCOON,ioos:station:TCOON:068:1,2016-12-09T21:18:00Z,27.2970,-97.4049,4.495,1111122 
TCOON,ioos:station:TCOON:068:1,2016-12-09T22:18:00Z,27.2970,-97.4049,4.495,1111122 
TCOON,ioos:station:TCOON:068:1,2016-12-09T23:18:00Z,27.2970,-97.4049,4.492,1111122 
TCOON,ioos:station:TCOON:068:1,2016-12-10T00:18:00Z,27.2970,-97.4049,4.488,1111122 
TCOON,ioos:station:TCOON:068:1,2016-12-10T01:18:00Z,27.2970,-97.4049,4.485,1111122 
TCOON,ioos:station:TCOON:068:1,2016-12-10T02:18:00Z,27.2970,-97.4049,4.49,1111122 
TCOON,ioos:station:TCOON:068:1,2016-12-10T03:18:00Z,27.2970,-97.4049,4.488,1111122 
TCOON,ioos:station:TCOON:068:1,2016-12-10T04:24:00Z,27.2970,-97.4049,4.49,1111122 
TCOON,ioos:station:TCOON:068:1,2016-12-10T05:18:00Z,27.2970,-97.4049,4.495,1111122 
TCOON,ioos:station:TCOON:068:1,2016-12-10T06:18:00Z,27.2970,-97.4049,4.496,1111122 
TCOON,ioos:station:TCOON:068:1,2016-12-10T07:18:00Z,27.2970,-97.4049,4.494,1111122 
TCOON,ioos:station:TCOON:068:1,2016-12-10T08:18:00Z,27.2970,-97.4049,4.485,1111122 
TCOON,ioos:station:TCOON:068:1,2016-12-10T09:18:00Z,27.2970,-97.4049,4.487,1111122 
TCOON,ioos:station:TCOON:068:1,2016-12-10T10:18:00Z,27.2970,-97.4049,4.491,1111122 
TCOON,ioos:station:TCOON:068:1,2016-12-10T11:18:00Z,27.2970,-97.4049,4.491,1111122 
TCOON,ioos:station:TCOON:068:1,2016-12-10T12:18:00Z,27.2970,-97.4049,4.508,1111122 
TCOON,ioos:station:TCOON:068:1,2016-12-10T13:18:00Z,27.2970,-97.4049,4.514,1111122 
TCOON,ioos:station:TCOON:068:1,2016-12-10T14:18:00Z,27.2970,-97.4049,4.508,1111122 
TCOON,ioos:station:TCOON:068:1,2016-12-10T15:18:00Z,27.2970,-97.4049,4.503,1111122 
TCOON,ioos:station:TCOON:068:1,2016-12-10T16:18:00Z,27.2970,-97.4049,4.503,1111122 
TCOON,ioos:station:TCOON:068:1,2016-12-10T17:18:00Z,27.2970,-97.4049,4.518,1111122 
TCOON,ioos:station:TCOON:068:1,2016-12-10T18:18:00Z,27.2970,-97.4049,4.516,1111122 
TCOON,ioos:station:TCOON:068:1,2016-12-10T19:18:00Z,27.2970,-97.4049,4.514,1111122 
TCOON,ioos:station:TCOON:068:1,2016-12-10T20:18:00Z,27.2970,-97.4049,4.508,1111122 
TCOON,ioos:station:TCOON:068:1,2016-12-10T21:18:00Z,27.2970,-97.4049,4.503,1111122 
TCOON,ioos:station:TCOON:068:1,2016-12-10T22:18:00Z,27.2970,-97.4049,4.505,1111122 
TCOON,ioos:station:TCOON:068:1,2016-12-10T23:18:00Z,27.2970,-97.4049,4.504,1111122 
TCOON,ioos:station:TCOON:068:1,2016-12-11T00:18:00Z,27.2970,-97.4049,4.506,1111122 
TCOON,ioos:station:TCOON:068:1,2016-12-11T01:18:00Z,27.2970,-97.4049,4.501,1111122 
TCOON,ioos:station:TCOON:068:1,2016-12-11T02:18:00Z,27.2970,-97.4049,4.507,1111122 
TCOON,ioos:station:TCOON:068:1,2016-12-11T03:18:00Z,27.2970,-97.4049,4.503,1111122 
TCOON,ioos:station:TCOON:068:1,2016-12-11T04:18:00Z,27.2970,-97.4049,4.503,1111122 
TCOON,ioos:station:TCOON:068:1,2016-12-11T05:18:00Z,27.2970,-97.4049,4.502,1111122 
TCOON,ioos:station:TCOON:068:1,2016-12-11T06:18:00Z,27.2970,-97.4049,4.503,1111122 
TCOON,ioos:station:TCOON:068:1,2016-12-11T07:18:00Z,27.2970,-97.4049,4.495,1111122 
TCOON,ioos:station:TCOON:068:1,2016-12-11T08:18:00Z,27.2970,-97.4049,4.495,1111122 
TCOON,ioos:station:TCOON:068:1,2016-12-11T09:18:00Z,27.2970,-97.4049,4.494,1111122 
TCOON,ioos:station:TCOON:068:1,2016-12-11T10:18:00Z,27.2970,-97.4049,4.493,1111122 
TCOON,ioos:station:TCOON:068:1,2016-12-11T11:18:00Z,27.2970,-97.4049,4.494,1111122 
TCOON,ioos:station:TCOON:068:1,2016-12-11T12:18:00Z,27.2970,-97.4049,4.491,1111122 
TCOON,ioos:station:TCOON:068:1,2016-12-11T13:18:00Z,27.2970,-97.4049,4.49,1111122 
TCOON,ioos:station:TCOON:068:1,2016-12-11T14:18:00Z,27.2970,-97.4049,4.487,1111122 
TCOON,ioos:station:TCOON:068:1,2016-12-11T15:18:00Z,27.2970,-97.4049,4.484,1111122 
TCOON,ioos:station:TCOON:068:1,2016-12-11T16:18:00Z,27.2970,-97.4049,4.482,1111122 
TCOON,ioos:station:TCOON:068:1,2016-12-11T17:18:00Z,27.2970,-97.4049,4.479,1111122 
TCOON,ioos:station:TCOON:068:1,2016-12-11T18:18:00Z,27.2970,-97.4049,4.479,1111122 
TCOON,ioos:station:TCOON:068:1,2016-12-11T19:18:00Z,27.2970,-97.4049,4.473,1111122 
TCOON,ioos:station:TCOON:068:1,2016-12-11T20:18:00Z,27.2970,-97.4049,4.459,1111122 
TCOON,ioos:station:TCOON:068:1,2016-12-11T21:18:00Z,27.2970,-97.4049,4.451,1111122 
TCOON,ioos:station:TCOON:068:1,2016-12-11T22:18:00Z,27.2970,-97.4049,4.461,1111122 
TCOON,ioos:station:TCOON:068:1,2016-12-11T23:18:00Z,27.2970,-97.4049,4.474,1111122 
TCOON,ioos:station:TCOON:068:1,2016-12-12T00:18:00Z,27.2970,-97.4049,4.474,1111122 
TCOON,ioos:station:TCOON:068:1,2016-12-12T01:18:00Z,27.2970,-97.4049,4.465,1111122 
TCOON,ioos:station:TCOON:068:1,2016-12-12T02:18:00Z,27.2970,-97.4049,4.459,1111122 
TCOON,ioos:station:TCOON:068:1,2016-12-12T03:18:00Z,27.2970,-97.4049,4.456,1111122 
TCOON,ioos:station:TCOON:068:1,2016-12-12T04:18:00Z,27.2970,-97.4049,4.463,1111122 
TCOON,ioos:station:TCOON:068:1,2016-12-12T05:18:00Z,27.2970,-97.4049,4.461,1111122 
TCOON,ioos:station:TCOON:068:1,2016-12-12T06:18:00Z,27.2970,-97.4049,4.458,1111122 
TCOON,ioos:station:TCOON:068:1,2016-12-12T07:18:00Z,27.2970,-97.4049,4.458,1111122 
TCOON,ioos:station:TCOON:068:1,2016-12-12T08:18:00Z,27.2970,-97.4049,4.457,1111122 
TCOON,ioos:station:TCOON:068:1,2016-12-12T09:18:00Z,27.2970,-97.4049,4.463,1111122 
TCOON,ioos:station:TCOON:068:1,2016-12-12T10:18:00Z,27.2970,-97.4049,4.461,1111122 
TCOON,ioos:station:TCOON:068:1,2016-12-12T11:18:00Z,27.2970,-97.4049,4.459,1111122 
TCOON,ioos:station:TCOON:068:1,2016-12-12T12:18:00Z,27.2970,-97.4049,4.459,1111122 
TCOON,ioos:station:TCOON:068:1,2016-12-12T13:18:00Z,27.2970,-97.4049,4.456,1111122 
TCOON,ioos:station:TCOON:068:1,2016-12-12T14:18:00Z,27.2970,-97.4049,4.455,1111122 
TCOON,ioos:station:TCOON:068:1,2016-12-12T15:24:00Z,27.2970,-97.4049,4.456,1111122 
TCOON,ioos:station:TCOON:068:1,2016-12-12T16:24:00Z,27.2970,-97.4049,4.456,1111122 
TCOON,ioos:station:TCOON:068:1,2016-12-12T17:24:00Z,27.2970,-97.4049,4.45,1111122 
TCOON,ioos:station:TCOON:068:1,2016-12-12T18:18:00Z,27.2970,-97.4049,4.448,1111122 
TCOON,ioos:station:TCOON:068:1,2016-12-12T19:18:00Z,27.2970,-97.4049,4.445,1111122 
TCOON,ioos:station:TCOON:068:1,2016-12-12T20:18:00Z,27.2970,-97.4049,4.44,1111122 
TCOON,ioos:station:TCOON:068:1,2016-12-12T21:18:00Z,27.2970,-97.4049,4.433,1111122 
TCOON,ioos:station:TCOON:068:1,2016-12-12T22:18:00Z,27.2970,-97.4049,4.428,1111122 
TCOON,ioos:station:TCOON:068:1,2016-12-12T23:18:00Z,27.2970,-97.4049,4.428,1111122 
TCOON,ioos:station:TCOON:068:1,2016-12-13T00:18:00Z,27.2970,-97.4049,4.425,1111122 
TCOON,ioos:station:TCOON:068:1,2016-12-13T01:18:00Z,27.2970,-97.4049,4.426,1111122 
TCOON,ioos:station:TCOON:068:1,2016-12-13T02:18:00Z,27.2970,-97.4049,4.421,1111122 